Find Starlink 2123

NORAD ID: 47401 Int'l Des: 2021-005 Owner: SPXS Country: US Constellation: starlink operational
LEOCIRCULARSTARLINK_TYPE

現在のビュー

3D地球を読み込み中...

Starlink 2123について

説明を読み込み中...

次回通過

Passes for default location (London). Set your location on the main map for personalized predictions.

高度履歴

Loading altitude history...

軌道要素

1 47401U 21005BE 26145.96346541 .00001085 00000-0 46721-4 0 9998
2 47401 53.1613 37.5533 0001167 84.1153 275.9982 15.31696279295221
Epoch: May 25, 2026 • Age: 16 hours

現在のステータス

高度 471.6 km
速度 7.63 km/s
衛星直下点 27.50°N, 50.93°W
打ち上げ日 Jan 20, 2021
運用期間 5.3 years
タイプ internet

技術仕様

分類 Payload
質量 260.00 kg
乾燥質量 248.00 kg
総質量 260.00 kg
長さ 0.20 m
直径 2.80 m
スパン 9.00 m
形状 Box + pan
製造者 SPXS
バスタイプ Starlink
フェーズステータス In Orbit
所有者/国 SPXS/US

Most Searched